Location: Dameraucourt
(49.7078°N, 1.9278°E)
Time: 07:29:26
(UTC+00:00)

CENTAUR R/B - Pass Details

Date: 13 December 2025
Orbit: 625 x 1555 km, 63.4° (Epoch: 20 April)

Event Time Altitude Azimuth Distance (km) Brightness Sun altitude
Rises 20:21:36 0° 310° (NW) 3,908 6.3 -42.2°
Reaches altitude 10° 20:24:17 10° 318° (NW) 3,082 5.6 -42.7°
Enters shadow 20:27:46 27° 338° (NNW) 2,199 4.5 -43.2°
